Location: Newark
(46.7333°N, 6.6667°E)
Time: 19:32:49
(UTC+00:00)

N. Korean satellite - Pass Details

Date: 28 September 2020
Orbit: 452 x 505 km, 97.2° (Epoch: 28 October)

Event Time Altitude Azimuth Distance (km) Brightness Sun altitude
Rises 03:59:56 0° 32° (NNE) 2,585 11.0 -15.9°
Reaches altitude 10° 04:03:10 10° 64° (ENE) 1,683 10.6 -15.3°
Maximum altitude 04:04:42 12° 89° (E) 1,534 10.3 -15.1°
Drops below altitude 10° 04:06:14 10° 114° (ESE) 1,663 10.1 -14.8°
Sets 04:09:22 0° 146° (SE) 2,520 10.5 -14.3°
